Regional Weather Roundup
Issued by NWS Charleston, SC

Current Version | Previous Version | Graphics & Text | Print | Product List | Glossary On
Versions: 1 2 3 4 5 6 7 8 9 10 11 12 13 14 15 16 17 18 19 20 21 22 23 24 25 26 27 28 29 30 31 32 33 34 35 36 37 38 39 40 41 42 43 44 45 46 47 48 49 50
000 ASUS42 KCHS 180910 RWRCHS REGIONAL WEATHER ROUNDUP NATIONAL WEATHER SERVICE CHARLESTON SC 400 AM EST THU DEC 18 2014 NOTE: "FAIR" INDICATES FEW OR NO CLOUDS BELOW 12,000 FEET WITH NO SIGNIFICANT WEATHER AND/OR OBSTRUCTIONS TO VISIBILITY. NOT ALL STATIONS ARE QUALITY CONTROLLED BY THE NATIONAL WEATHER SERVICE. USE DATA WITH CAUTION...ESPECIALLY DEWPOINT OBSERVATIONS. SCZ027-030-031-034>040-042>050-181000- ...SOUTHEAST SOUTH CAROLINA... CITY SKY/WX TMP DP RH WIND PRES REMARKS N CHARLESTON PTCLDY 40 39 97 CALM 30.09F WATERFRONT PRK N/A 48 N/A N/A W5 N/A MOUNT PLEASANT FAIR 37 37 100 CALM 30.09F PINOPOLIS N/A 46 43 87 VRB2 30.00F MONCKS CORNER FAIR 37 36 93 CALM 30.09F FOG SUMMERVILLE NOT AVBL BEAUFORT MCAS MOCLDY 40 37 89 SW3 30.11S BEAUFORT ARPT FAIR 41 41 100 W3 30.10F HILTON HEAD IS PTCLDY 41 39 93 SW3 30.12F WALTERBORO MOSUNNY 36 N/A N/A CALM 30.10F ALLENDALE FAIR 37 37 100 CALM 30.09F ...SOUTHERN MIDLANDS AND PEE DEE... CITY SKY/WX TMP DP RH WIND PRES REMARKS GEORGETOWN NOT AVBL KINGSTREE NOT AVBL ORANGEBURG CLEAR 34 32 92 CALM 30.09S BARNWELL N/A 34 34 100 CALM 30.10S AIKEN FAIR 34 34 100 CALM 30.11S MANNING NOT AVBL COLUMBIA CLEAR 35 31 85 CALM 30.08S SUMTER CLEAR 36 33 91 CALM 30.07S FLORENCE CLEAR 37 34 89 CALM 30.09R MYRTLE BEACH CLEAR 39 34 81 CALM 30.10S N MYRTLE BEACH CLEAR 38 36 92 CALM 30.09S FOG $$ GAZ063-065-086>088-099>101-113>116-118-119-134>141-150-181000- ...SOUTHEAST GEORGIA... CITY SKY/WX TMP DP RH WIND PRES REMARKS SAVANNAH ARPT CLEAR 41 36 82 CALM 30.11F HUNTER AAF CLEAR 38 37 97 CALM 30.09F FORT STEWART PTCLDY 38 36 92 CALM 30.12S STATESBORO PTCLDY 34 34 100 CALM 30.11S SYLVANIA MOSUNNY 36 36 100 CALM 30.10F CLAXTON FAIR 34 34 100 CALM 30.13S ...CSRA...CENTRAL AND FAR SOUTHEAST GEORGIA... CITY SKY/WX TMP DP RH WIND PRES REMARKS THOMSON MOCLDY 35 35 100 CALM 30.13S AUGUSTA-BUSH PTCLDY 33 32 96 CALM 30.10S AUGUSTA-DANIEL PTCLDY 41 37 86 CALM 30.09S SWAINSBORO FAIR 37 37 100 CALM 30.12R VIDALIA PTCLDY 37 37 100 CALM 30.13R EASTMAN FAIR 34 34 100 CALM 30.16S FOG HAZLEHURST FAIR 43 43 99 CALM 30.12S ALMA CLOUDY 41 39 93 CALM 30.14R WAYCROSS CLOUDY 46 44 93 CALM 30.14S JESUP FAIR 41 41 100 CALM 30.12F BAXLEY FAIR 43 41 93 CALM 30.13S BRUNSWICK MOCLDY 45 43 93 CALM 30.13F SAINT SIMONS MOCLDY 47 42 83 NW3 30.12F $$ SCZ027-028-034-036>038-045-046-048>050-GAZ119-141-181000- ...LAKE AND SUPPLEMENTAL COASTAL OBSERVATIONS... STATION/POSITION TIME TEMP WIND PRES WAVE SWELL AIR SEA DIR/SP/G HT/PER HT/PER/DIR (UTC) (F) (DEG/KT/KT) (MB) (FT/S) (FT/S/D) UPR LAKE MARION NOT AVBL WINYAH BAY 0800 43 270/ 1 1018.0S LAKE MURRAY 0800 43 300/ 2/ 4 1018.6R ACE BASIN NERRS 0800 43 CALM 1019.0S FORT PULASKI 0900 49 57 290/ 6/ 7 1019.8F SAPELO ISLAND 0800 44 CALM 1020.0S $$ ANZ835-935-AMZ111-154-330-350-352-354-370-450-454-472-181000- ...C-MAN AND BUOY OBSERVATIONS... STATION/POSITION TIME TEMP WIND PRES WAVE SWELL AIR SEA DIR/SP/G HT/PER HT/PER/DIR (UTC) (F) (DEG/KT/KT) (MB) (FT/S) (FT/S/D) BUOY 41004 0900 61 73 270/ 8/ 10 1018.6F 2/10 2/10 BUOY 41008 0900 54 57 310/ 10/ 12 1019.3F 1/11 FOLLY BEACH CMAN 0800 48 260/ 4/ 5 1019.5S CAPERS NEARSHORE 0800 52 270/ 6/ 6 N/A FRIPP NEARSHORE NOT AVBL STATION/POSITION TIME TEMP WIND PRES WAVE SWELL AIR SEA DIR/SP/G HT/PER HT/PER/DIR (UTC) (F) (DEG/KT/KT) (MB) (FT/S) (FT/S/D) 5E ST. MARYS GA 0900 60 N/A 1/11 FRYING PAN BUOY 0900 58 66 290/ 8/ 10 1019.1F 2/ 3 2/ 90/ 7 BUOY 41025 0900 55 1017.4S 3/ 4 CAPE LOOKOUT NC 0800 54 290/ 11/ 13 1018.2R BUOY 41002 0844 69 72 280/ 12/ 16 1017.9F 5/ 7 5/270/ 7 BUOY 41010 0900 70 76 280/ 10/ 14 1019.0F 2/10 2/ 90/10 ST AUGUSTINE FL 0900 48 270/ 7/ 8 1020.8F $$

USA.gov is the U.S. government's official web portal to all federal, state and local government web resources and services.